Location: Hochstatterhof
(48.7256°N, 10.3487°E)
Time: 20:43:56
(UTC+00:00)

Cosmos 2237 Rocket - Pass Details

Date: 26 September 2023
Orbit: 836 x 848 km, 71.0° (Epoch: 09 December)

Event Time Altitude Azimuth Distance (km) Brightness Sun altitude
Rises 04:18:54 0° 334° (NNW) 3,422 5.2 -9.3°
Reaches altitude 10° 04:21:28 10° 340° (NNW) 2,482 4.5 -8.9°
Maximum altitude 04:26:58 47° 54° (NE) 1,108 3.4 -8.0°
Drops below altitude 10° 04:32:25 10° 128° (SE) 2,462 5.3 -7.1°
Sets 04:34:56 0° 134° (SE) 3,392 6.0 -6.6°
